| time (UTC) | temp F | wind direction | speed MPH | gust MPH | rain 1hr in | rain 24hr in | rain mn in | humidity % | barometer mb |
| 20260905081558 | 73 | 107 | 0.0 | 0.0 | 0.00 | 0.00 | 0.00 | 90 | 1008.3 |
| 20260905080110 | 73 | 107 | 0.0 | 0.0 | 0.00 | 0.00 | 0.00 | 90 | 1008.2 |
| 20260905074556 | 73 | 107 | 0.0 | 0.0 | 0.00 | 0.00 | 0.00 | 89 | 1008.2 |
| 20260905073056 | 74 | 107 | 0.0 | 0.0 | 0.00 | 0.00 | 0.00 | 89 | 1008.3 |
| 20260905071555 | 74 | 107 | 0.0 | 0.0 | 0.00 | 0.00 | 0.00 | 88 | 1008.3 |
| 20260905070051 | 74 | 107 | 0.0 | 0.0 | 0.00 | 0.00 | 0.00 | 88 | 1008.4 |
| 20260905064550 | 75 | 107 | 0.0 | 0.0 | 0.00 | 0.00 | 0.00 | 87 | 1008.5 |
| 20260905063048 | 75 | 107 | 0.0 | 0.0 | 0.00 | 0.00 | 0.00 | 88 | 1008.5 |
| 20260905061547 | 75 | 107 | 0.0 | 0.0 | 0.00 | 0.00 | 0.00 | 87 | 1008.6 |
| 20260905060046 | 76 | 107 | 0.0 | 0.0 | 0.00 | 0.00 | 0.00 | 87 | 1008.7 |
| 20260905054543 | 76 | 107 | 0.0 | 0.0 | 0.00 | 0.00 | 0.00 | 87 | 1008.4 |
| 20260905053044 | 76 | 107 | 0.0 | 0.0 | 0.00 | 0.00 | 0.00 | 85 | 1008.4 |
| 20260905051544 | 77 | 107 | 0.0 | 0.0 | 0.00 | 0.00 | 0.00 | 85 | 1008.4 |
| 20260905050039 | 77 | 107 | 0.0 | 0.0 | 0.00 | 0.00 | 0.00 | 84 | 1008.4 |
| 20260905044540 | 78 | 107 | 0.0 | 0.0 | 0.00 | 0.00 | 0.00 | 84 | 1008.4 |
| 20260905043051 | 78 | 107 | 0.0 | 0.0 | 0.00 | 0.00 | 0.00 | 83 | 1008.4 |
| 20260905041538 | 79 | 107 | 0.0 | 0.0 | 0.00 | 0.00 | 0.00 | 82 | 1008.4 |
| 20260905040041 | 79 | 107 | 0.0 | 0.0 | 0.00 | 0.00 | 0.00 | 82 | 1008.3 |
| 20260905034540 | 80 | 107 | 0.0 | 0.0 | 0.00 | 0.00 | 0.00 | 81 | 1008.4 |
| 20260905033105 | 80 | 107 | 0.0 | 0.0 | 0.00 | 0.00 | 0.00 | 81 | 1008.2 |
| 20260905031550 | 81 | 107 | 0.0 | 0.0 | 0.00 | 0.00 | 0.00 | 79 | 1008.2 |
| 20260905030050 | 81 | 107 | 0.0 | 0.0 | 0.00 | 0.00 | 0.00 | 78 | 1008.0 |
| 20260905024537 | 82 | 107 | 0.0 | 0.0 | 0.00 | 0.00 | 0.00 | 77 | 1007.9 |
| 20260905023036 | 83 | 107 | 0.0 | 0.0 | 0.00 | 0.00 | 0.00 | 76 | 1007.6 |
| 20260905021535 | 83 | 107 | 0.0 | 0.0 | 0.00 | 0.00 | 0.00 | 75 | 1007.5 |
| 20260905020038 | 84 | 107 | 0.0 | 0.0 | 0.00 | 0.00 | 0.00 | 74 | 1007.3 |
| 20260905014533 | 85 | 107 | 0.0 | 0.0 | 0.00 | 0.00 | 0.00 | 74 | 1007.2 |
| 20260905013036 | 86 | 107 | 0.0 | 0.0 | 0.00 | 0.00 | 0.00 | 72 | 1007.0 |
| 20260905011536 | 87 | 107 | 0.0 | 0.0 | 0.00 | 0.00 | 0.00 | 70 | 1006.9 |
| 20260905010040 | 88 | 107 | 0.0 | 0.0 | 0.00 | 0.00 | 0.00 | 69 | 1006.8 |
| 20260905004533 | 90 | 108 | 0.0 | 0.0 | 0.00 | 0.00 | 0.00 | 66 | 1006.8 |
| 20260905003033 | 92 | 108 | 0.0 | 1.0 | 0.00 | 0.00 | 0.00 | 63 | 1006.9 |
| 20260905001531 | 95 | 108 | 0.0 | 0.0 | 0.00 | 0.00 | 0.00 | 56 | 1006.8 |
| 20260905000030 | 96 | 108 | 0.0 | 0.0 | 0.00 | 0.00 | 0.00 | 53 | 1006.8 |
| 20260904234528 | 97 | 108 | 0.0 | 2.0 | 0.00 | 0.00 | 0.00 | 51 | 1006.9 |
| 20260904233031 | 97 | 108 | 0.0 | 0.0 | 0.00 | 0.00 | 0.00 | 50 | 1007.0 |
| 20260904231536 | 97 | 108 | 2.0 | 4.0 | 0.00 | 0.00 | 0.00 | 49 | 1007.1 |
| 20260904230049 | 98 | 114 | 1.0 | 5.0 | 0.00 | 0.00 | 0.00 | 49 | 1007.1 |
| 20260904224526 | 98 | 179 | 0.0 | 5.0 | 0.00 | 0.00 | 0.00 | 48 | 1007.1 |
| 20260904223027 | 98 | 217 | 2.0 | 5.0 | 0.00 | 0.00 | 0.00 | 47 | 1007.1 |
| 20260904221526 | 98 | 243 | 3.0 | 8.0 | 0.00 | 0.00 | 0.00 | 46 | 1007.1 |
| 20260904220028 | 99 | 192 | 1.0 | 6.0 | 0.00 | 0.00 | 0.00 | 46 | 1007.1 |
| 20260904214522 | 98 | 219 | 1.0 | 8.0 | 0.00 | 0.00 | 0.00 | 47 | 1007.1 |
| 20260904213029 | 98 | 227 | 3.0 | 12.0 | 0.00 | 0.00 | 0.00 | 47 | 1007.2 |
| 20260904211522 | 98 | 241 | 3.0 | 8.0 | 0.00 | 0.00 | 0.00 | 48 | 1007.4 |
| 20260904210021 | 98 | 193 | 1.0 | 11.0 | 0.00 | 0.00 | 0.00 | 49 | 1007.5 |
| 20260904204526 | 97 | 217 | 2.0 | 10.0 | 0.00 | 0.00 | 0.00 | 48 | 1007.6 |
| 20260904203019 | 97 | 177 | 3.0 | 9.0 | 0.00 | 0.00 | 0.00 | 49 | 1007.7 |
| 20260904201515 | 97 | 187 | 4.0 | 10.0 | 0.00 | 0.00 | 0.00 | 49 | 1007.8 |
| 20260904200014 | 96 | 257 | 2.0 | 12.0 | 0.00 | 0.00 | 0.00 | 48 | 1008.1 |
| 20260904194512 | 96 | 227 | 3.0 | 10.0 | 0.00 | 0.00 | 0.00 | 49 | 1008.2 |
| 20260904193012 | 95 | 146 | 4.0 | 11.0 | 0.00 | 0.00 | 0.00 | 49 | 1008.3 |
| 20260904191510 | 96 | 256 | 4.0 | 10.0 | 0.00 | 0.00 | 0.00 | 48 | 1008.4 |
| 20260904190007 | 95 | 222 | 4.0 | 10.0 | 0.00 | 0.00 | 0.00 | 50 | 1008.5 |
| 20260904184505 | 94 | 154 | 4.0 | 10.0 | 0.00 | 0.00 | 0.00 | 51 | 1008.6 |
| 20260904183003 | 94 | 108 | 3.0 | 9.0 | 0.00 | 0.00 | 0.00 | 53 | 1008.6 |
| 20260904181501 | 93 | 163 | 4.0 | 10.0 | 0.00 | 0.00 | 0.00 | 54 | 1008.7 |
| 20260904174556 | 92 | 211 | 3.0 | 13.0 | 0.00 | 0.00 | 0.00 | 55 | 1009.0 |
| 20260904173058 | 92 | 235 | 4.0 | 10.0 | 0.00 | 0.00 | 0.00 | 56 | 1009.1 |
| 20260904171611 | 91 | 257 | 4.0 | 11.0 | 0.00 | 0.00 | 0.00 | 57 | 1009.1 |
| 20260904170050 | 91 | 189 | 2.0 | 12.0 | 0.00 | 0.00 | 0.00 | 59 | 1009.3 |
| 20260904164558 | 90 | 106 | 4.0 | 11.0 | 0.00 | 0.00 | 0.00 | 60 | 1009.4 |
| 20260904163046 | 89 | 220 | 4.0 | 11.0 | 0.00 | 0.00 | 0.00 | 60 | 1009.3 |
| 20260904161548 | 89 | 172 | 5.0 | 10.0 | 0.00 | 0.00 | 0.00 | 62 | 1009.3 |
| 20260904160042 | 89 | 82 | 2.0 | 10.0 | 0.00 | 0.00 | 0.00 | 64 | 1009.4 |
| 20260904154540 | 88 | 240 | 4.0 | 14.0 | 0.00 | 0.00 | 0.00 | 65 | 1009.5 |
| 20260904153054 | 86 | 160 | 4.0 | 13.0 | 0.00 | 0.00 | 0.00 | 67 | 1009.5 |
| 20260904151534 | 86 | 204 | 2.0 | 10.0 | 0.00 | 0.00 | 0.00 | 69 | 1009.6 |
| 20260904150039 | 85 | 193 | 1.0 | 8.0 | 0.00 | 0.00 | 0.00 | 70 | 1009.5 |
| 20260904144528 | 84 | 116 | 3.0 | 8.0 | 0.00 | 0.00 | 0.00 | 71 | 1009.4 |
| 20260904143026 | 83 | 233 | 5.0 | 13.0 | 0.00 | 0.00 | 0.00 | 72 | 1009.6 |
| 20260904141524 | 83 | 135 | 1.0 | 4.0 | 0.00 | 0.00 | 0.00 | 73 | 1009.5 |
| 20260904140032 | 82 | 224 | 2.0 | 7.0 | 0.00 | 0.00 | 0.00 | 74 | 1009.6 |
| 20260904134528 | 81 | 189 | 1.0 | 4.0 | 0.00 | 0.00 | 0.00 | 76 | 1009.7 |
| 20260904133023 | 80 | 133 | 0.0 | 3.0 | 0.00 | 0.00 | 0.00 | 78 | 1009.7 |
| 20260904131536 | 79 | 104 | 1.0 | 3.0 | 0.00 | 0.00 | 0.00 | 79 | 1009.6 |
| 20260904130020 | 78 | 104 | 0.0 | 3.0 | 0.00 | 0.00 | 0.00 | 81 | 1009.5 |
| 20260904124519 | 76 | 104 | 0.0 | 1.0 | 0.00 | 0.00 | 0.00 | 85 | 1009.4 |
| 20260904123016 | 75 | 104 | 0.0 | 0.0 | 0.00 | 0.00 | 0.00 | 86 | 1009.2 |
| 20260904121516 | 75 | 104 | 0.0 | 0.0 | 0.00 | 0.00 | 0.00 | 85 | 1009.1 |
| 20260904120014 | 75 | 104 | 0.0 | 0.0 | 0.00 | 0.00 | 0.00 | 84 | 1008.8 |
| 20260904114508 | 76 | 104 | 0.0 | 2.0 | 0.00 | 0.00 | 0.00 | 83 | 1008.6 |
| 20260904113016 | 76 | 104 | 0.0 | 0.0 | 0.00 | 0.00 | 0.00 | 82 | 1008.5 |
| 20260904111504 | 77 | 104 | 1.0 | 3.0 | 0.00 | 0.00 | 0.00 | 81 | 1008.2 |
| 20260904110003 | 77 | 119 | 1.0 | 3.0 | 0.00 | 0.00 | 0.00 | 80 | 1008.2 |
| 20260904104502 | 77 | 127 | 0.0 | 4.0 | 0.00 | 0.00 | 0.00 | 80 | 1008.1 |
| 20260904103101 | 76 | 155 | 0.0 | 2.0 | 0.00 | 0.00 | 0.00 | 81 | 1008.0 |
| 20260904101608 | 76 | 154 | 0.0 | 0.0 | 0.00 | 0.00 | 0.00 | 80 | 1007.9 |
| 20260904100107 | 77 | 154 | 0.0 | 0.0 | 0.00 | 0.00 | 0.00 | 79 | 1007.8 |
| 20260904094604 | 78 | 154 | 0.0 | 0.0 | 0.00 | 0.00 | 0.00 | 78 | 1007.8 |
| 20260904093048 | 79 | 154 | 0.0 | 2.0 | 0.00 | 0.00 | 0.00 | 75 | 1007.6 |
| 20260904091554 | 80 | 154 | 0.0 | 0.0 | 0.00 | 0.00 | 0.00 | 73 | 1007.2 |
| 20260904090046 | 80 | 239 | 0.0 | 4.0 | 0.00 | 0.00 | 0.00 | 73 | 1007.2 |
| 20260904084545 | 81 | 116 | 0.0 | 5.0 | 0.00 | 0.00 | 0.00 | 72 | 1007.0 |
| 20260904083048 | 81 | 193 | 0.0 | 4.0 | 0.00 | 0.00 | 0.00 | 72 | 1007.1 |